Weather History for KONL - February, 2014

Change the Weather History Date:

Thursday, February 6, 2014

  Actual Average Record
Temperature  
Mean Temperature -3 °F -  
Max Temperature 6 °F 31 °F 64 °F (1965)
Min Temperature -12 °F 9 °F -16 °F (1982)
Degree Days  
Heating Degree Days 68    
Moisture  
Dew Point -13 °F    
Average Humidity 65    
Maximum Humidity 75    
Minimum Humidity 50    
Precipitation  
Precipitation 0.00 in - - ()
Sea Level Pressure  
Sea Level Pressure 30.41 in    
Wind  
Wind Speed 9 mph (West)    
Max Wind Speed 15 mph    
Max Gust Speed 18 mph    
Visibility 10 miles    
Events      
Averages and records for this station are not official NWS values.
T = Trace of Precipitation, MM = Missing Value Source: NWS Daily Summary

Daily Weather History Graph

Daily Weather History Graph

Search for Another Location

Airport or City:

Trip Planner

Search our weather history database for the weather conditions in past years. The results will help you decide how hot, cold, wet, or windy it might be!

Date:

Astronomy

Feb. 06, 2014 Rise Set
Actual Time 7:42 AM CST 5:55 PM CST
Civil Twilight 7:13 AM CST 6:24 PM CST
Nautical Twilight 6:40 AM CST 6:58 PM CST
Astronomical Twilight 6:07 AM CST 7:30 PM CST
Moon 11:27 AM CST (2/6) 1:00 AM CST (2/6)
Length of Visible Light 11h 11m
Length of Day
10h 12m
Waxing Crescent, 49% of the Moon is Illuminated
Feb 6
Waxing Crescent
Feb 6
First Quarter
Feb 14
Full
Feb 22
Last Quarter
Mar 1
New

Hourly Weather History & Observations

Time (CST) Temp. Windchill Dew Point Humidity Pressure Visibility Wind Dir Wind Speed Gust Speed Precip Events Conditions
12:15 AM -8.9 °F -25.0 °F -15.9 °F 71% 30.55 in 10.0 mi West 8.1 mph - N/A   Clear
12:35 AM -9.8 °F -26.1 °F -16.6 °F 72% 30.54 in 10.0 mi West 8.1 mph - N/A   Clear
12:55 AM -8.9 °F -27.2 °F -15.7 °F 72% 30.54 in 10.0 mi WNW 10.4 mph - N/A   Clear
1:15 AM -8.0 °F -26.1 °F -15.7 °F 69% 30.53 in 10.0 mi WNW 10.4 mph - N/A   Clear
1:16 AM -7.6 °F -25.7 °F -16.6 °F 65% 30.53 in 10.0 mi WNW 10.4 mph - N/A   Clear
1:35 AM -7.8 °F -25.9 °F -15.9 °F 68% 30.52 in 10.0 mi WNW 10.4 mph - N/A   Clear
1:55 AM -9.8 °F -26.1 °F -17.5 °F 69% 30.52 in 10.0 mi West 8.1 mph - N/A   Clear
2:15 AM -10.3 °F -27.9 °F -17.5 °F 71% 30.52 in 10.0 mi West 9.2 mph - N/A   Clear
2:35 AM -10.7 °F -28.4 °F -17.9 °F 71% 30.52 in 10.0 mi West 9.2 mph - N/A   Clear
2:55 AM -10.5 °F -31.1 °F -17.7 °F 71% 30.51 in 10.0 mi WNW 12.7 mph - N/A   Clear
3:15 AM -9.9 °F -29.6 °F -17.5 °F 69% 30.51 in 10.0 mi WNW 11.5 mph - N/A   Scattered Clouds
3:35 AM -9.0 °F -28.4 °F -17.1 °F 68% 30.50 in 10.0 mi WNW 11.5 mph - N/A   Scattered Clouds
3:55 AM -8.9 °F -27.2 °F -17.5 °F 66% 30.50 in 10.0 mi WNW 10.4 mph - N/A   Clear
4:15 AM -9.0 °F -27.4 °F -17.7 °F 66% 30.50 in 10.0 mi WNW 10.4 mph - N/A   Clear
4:35 AM -9.8 °F -28.3 °F -18.2 °F 66% 30.50 in 10.0 mi WNW 10.4 mph - N/A   Clear
4:55 AM -10.5 °F -29.2 °F -18.6 °F 67% 30.50 in 10.0 mi WNW 10.4 mph - N/A   Clear
5:15 AM -12.1 °F -30.1 °F -19.5 °F 70% 30.51 in 10.0 mi West 9.2 mph - N/A   Clear
5:35 AM -12.1 °F -28.9 °F -19.3 °F 70% 30.50 in 10.0 mi West 8.1 mph - N/A   Scattered Clouds
5:55 AM -12.3 °F -30.4 °F -19.5 °F 70% 30.50 in 10.0 mi West 9.2 mph - N/A   Scattered Clouds
6:15 AM -12.1 °F -28.9 °F -19.3 °F 70% 30.50 in 10.0 mi West 8.1 mph - N/A   Mostly Cloudy
6:35 AM -11.2 °F -30.1 °F -18.9 °F 69% 30.50 in 10.0 mi West 10.4 mph - N/A   Mostly Cloudy
6:55 AM -10.3 °F -30.9 °F -18.4 °F 67% 30.49 in 10.0 mi West 12.7 mph - N/A   Overcast
7:15 AM -9.0 °F -28.4 °F -17.7 °F 66% 30.48 in 10.0 mi WNW 11.5 mph - N/A   Overcast
7:35 AM -8.3 °F -25.5 °F -16.6 °F 67% 30.49 in 10.0 mi West 9.2 mph - N/A   Overcast
7:55 AM -7.8 °F -25.9 °F -16.4 °F 66% 30.49 in 10.0 mi WNW 10.4 mph - N/A   Overcast
8:15 AM -7.1 °F -22.8 °F -15.7 °F 66% 30.48 in 10.0 mi WNW 8.1 mph - N/A   Overcast
8:35 AM -5.8 °F -22.4 °F -14.8 °F 65% 30.48 in 10.0 mi WNW 9.2 mph - N/A   Overcast
8:55 AM -5.1 °F -22.5 °F -14.8 °F 63% 30.49 in 10.0 mi West 10.4 mph - N/A   Overcast
9:15 AM -4.7 °F -23.0 °F -14.4 °F 63% 30.49 in 10.0 mi West 11.5 mph - N/A   Overcast
9:35 AM -4.4 °F -20.6 °F -14.1 °F 63% 30.48 in 10.0 mi WNW 9.2 mph - N/A   Overcast
9:55 AM -3.1 °F -19.1 °F -13.2 °F 62% 30.48 in 10.0 mi West 9.2 mph - N/A   Mostly Cloudy
10:15 AM -1.5 °F -16.0 °F -11.6 °F 62% 30.48 in 10.0 mi West 8.1 mph - N/A   Scattered Clouds
10:35 AM -0.0 °F -16.3 °F -10.5 °F 61% 30.47 in 10.0 mi West 10.4 mph - N/A   Mostly Cloudy
10:55 AM 0.7 °F -17.0 °F -9.6 °F 62% 30.47 in 10.0 mi West 12.7 mph - N/A   Overcast
11:15 AM 1.4 °F -16.9 °F -8.7 °F 63% 30.46 in 10.0 mi WNW 13.8 mph 18.4 mph N/A   Mostly Cloudy
11:35 AM 1.9 °F -14.7 °F -8.3 °F 62% 30.45 in 10.0 mi West 11.5 mph - N/A   Scattered Clouds
11:55 AM 2.3 °F -16.4 °F -8.1 °F 62% 30.45 in 10.0 mi West 15.0 mph - N/A   Mostly Cloudy
12:15 PM 2.7 °F -13.8 °F -7.8 °F 62% 30.44 in 10.0 mi West 11.5 mph - N/A   Overcast
12:35 PM 3.2 °F -13.9 °F -8.0 °F 60% 30.43 in 10.0 mi West 12.7 mph - N/A   Mostly Cloudy
12:55 PM 3.2 °F -13.1 °F -8.1 °F 59% 30.41 in 10.0 mi West 11.5 mph - N/A   Mostly Cloudy
1:15 PM 4.3 °F -12.5 °F -8.3 °F 56% 30.40 in 10.0 mi West 12.7 mph - N/A   Mostly Cloudy
1:35 PM 5.2 °F -12.1 °F -7.4 °F 56% 30.39 in 10.0 mi West 13.8 mph - N/A   Scattered Clouds
1:55 PM 5.0 °F -12.3 °F -8.3 °F 54% 30.38 in 10.0 mi West 13.8 mph - N/A   Clear
2:15 PM 5.5 °F -10.9 °F -7.8 °F 54% 30.36 in 10.0 mi West 12.7 mph 17.3 mph N/A   Clear
2:35 PM 6.1 °F -8.7 °F -7.8 °F 53% 30.36 in 10.0 mi West 10.4 mph - N/A   Clear
2:55 PM 6.3 °F -10.0 °F -8.0 °F 52% 30.35 in 10.0 mi West 12.7 mph - N/A   Clear
2:58 PM 6.8 °F -8.6 °F -7.6 °F 52% 30.34 in 10.0 mi West 11.5 mph - N/A   Clear
3:15 PM 6.4 °F -8.2 °F -8.0 °F 52% 30.34 in 10.0 mi West 10.4 mph 16.1 mph N/A   Clear
3:35 PM 6.6 °F -8.0 °F -8.3 °F 50% 30.33 in 10.0 mi West 10.4 mph 17.3 mph N/A   Clear
3:55 PM 6.6 °F -9.5 °F -8.3 °F 50% 30.33 in 10.0 mi WSW 12.7 mph - N/A   Clear
4:15 PM 6.3 °F -8.4 °F -8.3 °F 51% 30.33 in 10.0 mi West 10.4 mph - N/A   Clear
4:35 PM 5.9 °F -8.9 °F -8.0 °F 53% 30.32 in 10.0 mi West 10.4 mph - N/A   Clear
4:55 PM 5.7 °F -8.2 °F -7.8 °F 54% 30.31 in 10.0 mi West 9.2 mph - N/A   Clear
5:15 PM 5.4 °F -6.5 °F -7.6 °F 55% 30.31 in 10.0 mi West 6.9 mph - N/A   Clear
5:35 PM 4.1 °F -6.7 °F -8.5 °F 56% 30.30 in 10.0 mi West 5.8 mph - N/A   Clear
5:55 PM 2.3 °F -5.2 °F -8.5 °F 61% 30.30 in 10.0 mi West 3.5 mph - N/A   Clear
6:15 PM 1.6 °F - -8.9 °F 62% 30.29 in 10.0 mi Calm Calm - N/A   Clear
6:35 PM 1.2 °F - -8.7 °F 63% 30.29 in 10.0 mi Calm Calm - N/A   Clear
6:55 PM 1.8 °F - -8.5 °F 62% 30.29 in 10.0 mi Calm Calm - N/A   Clear
7:15 PM 0.5 °F - -9.0 °F 64% 30.29 in 10.0 mi Calm Calm - N/A   Clear
7:35 PM -0.4 °F - -9.2 °F 66% 30.29 in 10.0 mi Calm Calm - N/A   Clear
7:55 PM -3.8 °F - -11.6 °F 69% 30.28 in 10.0 mi Calm Calm - N/A   Clear
8:15 PM -4.0 °F - -10.7 °F 73% 30.28 in 10.0 mi Calm Calm - N/A   Clear
8:35 PM -5.8 °F -16.7 °F -13.0 °F 71% 30.27 in 10.0 mi South 4.6 mph - N/A   Clear
8:55 PM -9.9 °F -21.5 °F -15.9 °F 75% 30.27 in 10.0 mi South 4.6 mph - N/A   Clear
9:15 PM -9.8 °F -23.1 °F -16.2 °F 73% 30.27 in 10.0 mi SSW 5.8 mph - N/A   Clear
9:35 PM -11.2 °F -23.0 °F -17.1 °F 75% 30.27 in 10.0 mi SW 4.6 mph - N/A   Clear
9:55 PM -8.7 °F -23.4 °F -14.6 °F 75% 30.27 in 10.0 mi WSW 6.9 mph - N/A   Clear
10:15 PM -6.7 °F -22.3 °F -13.0 °F 74% 30.26 in 10.0 mi WSW 8.1 mph - N/A   Clear
10:35 PM -4.9 °F -20.1 °F -11.6 °F 73% 30.26 in 10.0 mi WSW 8.1 mph - N/A   Clear
10:55 PM -6.2 °F -18.9 °F -13.0 °F 72% 30.26 in 10.0 mi WSW 5.8 mph - N/A   Clear
11:15 PM -6.5 °F -19.3 °F -13.7 °F 71% 30.25 in 10.0 mi SW 5.8 mph - N/A   Clear
11:35 PM -9.8 °F -24.7 °F -16.1 °F 74% 30.25 in 10.0 mi SW 6.9 mph - N/A   Scattered Clouds
11:55 PM -9.4 °F -24.3 °F -15.9 °F 73% 30.24 in 10.0 mi SW 6.9 mph - N/A   Clear